Voltar ao catálogo

DELTA 1 DEB

AtivoPO
NORAD 7940·DEBRIS·🇺🇸 United States

Lançado Jul 23, 1972 de Vandenberg Space Force Base

Loading…

Próximas Passagens (próximas 24 horas)

TLE

AtualizadoSource: Space-Track

Época: Sep 14, 2026, 11:49 UTC

1 07940U 72058CF  26257.49261346  .00000688  00000-0  26461-3 0  9993
2 07940  97.9758 274.8616 0319832 359.7334   0.3620 14.08667884733579

Acompanhe DELTA 1 DEB em tempo real com AllMySat

Download on the App Store